TimeCST,TemperatureF,Dew PointF,Humidity,Sea Level PressureIn,VisibilityMPH,Wind Direction,Wind SpeedMPH,Gust SpeedMPH,PrecipitationIn,Events,Conditions,WindDirDegrees,DateUTC
12:53 AM,57.9,55.0,90,29.89,10.0,West,3.5,-,0.03,,Overcast,280,2013-12-15 06:53:00
1:20 AM,57.2,55.4,94,29.91,10.0,West,6.9,-,N/A,,Overcast,270,2013-12-15 07:20:00
1:33 AM,55.4,53.6,94,29.92,8.0,NW,12.7,24.2,0.00,Rain,Light Rain,310,2013-12-15 07:33:00
1:53 AM,54.0,51.1,90,29.92,7.0,NNW,11.5,18.4,0.00,,Overcast,330,2013-12-15 07:53:00
2:53 AM,52.0,48.9,89,29.96,9.0,NW,9.2,-,N/A,,Overcast,320,2013-12-15 08:53:00
3:04 AM,51.8,48.2,88,29.96,10.0,NW,9.2,19.6,N/A,,Overcast,320,2013-12-15 09:04:00
3:30 AM,51.8,46.4,82,29.97,10.0,NNW,10.4,-,N/A,,Overcast,330,2013-12-15 09:30:00
3:53 AM,50.0,46.9,89,29.97,10.0,NNW,10.4,19.6,N/A,,Overcast,340,2013-12-15 09:53:00
4:02 AM,50.0,46.4,87,29.98,9.0,WNW,12.7,18.4,N/A,,Overcast,300,2013-12-15 10:02:00
4:33 AM,46.4,42.8,87,30.01,9.0,NNW,9.2,24.2,N/A,,Overcast,330,2013-12-15 10:33:00
4:53 AM,46.0,41.0,83,30.02,10.0,NW,13.8,21.9,N/A,,Overcast,320,2013-12-15 10:53:00
5:53 AM,45.0,39.9,82,30.05,10.0,NW,12.7,-,N/A,,Overcast,320,2013-12-15 11:53:00
6:53 AM,44.1,39.0,82,30.09,10.0,NNW,15.0,20.7,N/A,,Overcast,340,2013-12-15 12:53:00
7:18 AM,42.8,37.4,81,30.10,10.0,North,8.1,19.6,N/A,,Overcast,350,2013-12-15 13:18:00
7:53 AM,43.0,37.9,82,30.11,10.0,North,8.1,-,N/A,,Overcast,350,2013-12-15 13:53:00
8:53 AM,43.0,37.0,80,30.14,10.0,North,11.5,19.6,N/A,,Overcast,350,2013-12-15 14:53:00
9:53 AM,43.0,36.0,76,30.15,10.0,North,12.7,20.7,N/A,,Overcast,10,2013-12-15 15:53:00
10:53 AM,44.1,36.0,73,30.13,10.0,North,8.1,-,N/A,,Overcast,350,2013-12-15 16:53:00
11:53 AM,46.9,35.1,63,30.13,10.0,NNW,9.2,-,N/A,,Overcast,340,2013-12-15 17:53:00
12:53 PM,48.9,35.1,59,30.12,10.0,NNW,10.4,-,N/A,,Mostly Cloudy,340,2013-12-15 18:53:00
1:07 PM,50.0,35.6,58,30.12,10.0,North,11.5,-,N/A,,Scattered Clouds,350,2013-12-15 19:07:00
1:28 PM,48.2,35.6,62,30.12,10.0,North,11.5,18.4,N/A,,Mostly Cloudy,350,2013-12-15 19:28:00
1:53 PM,48.9,35.1,59,30.12,10.0,North,10.4,19.6,N/A,,Mostly Cloudy,350,2013-12-15 19:53:00
2:07 PM,50.0,35.6,58,30.12,10.0,North,9.2,18.4,N/A,,Scattered Clouds,360,2013-12-15 20:07:00
2:53 PM,50.0,35.1,57,30.12,10.0,NNW,10.4,-,N/A,,Clear,330,2013-12-15 20:53:00
3:53 PM,45.0,34.0,65,30.14,10.0,NNW,15.0,20.7,N/A,,Clear,330,2013-12-15 21:53:00
4:53 PM,42.1,34.0,73,30.16,10.0,North,9.2,20.7,N/A,,Clear,350,2013-12-15 22:53:00
5:53 PM,39.9,33.1,77,30.19,10.0,North,4.6,-,N/A,,Clear,350,2013-12-15 23:53:00
6:53 PM,37.9,32.0,79,30.22,9.0,North,4.6,-,N/A,,Clear,350,2013-12-16 00:53:00
7:53 PM,37.9,32.0,79,30.23,10.0,North,4.6,-,N/A,,Clear,10,2013-12-16 01:53:00
8:53 PM,37.0,30.9,79,30.24,9.0,Calm,Calm,-,N/A,,Clear,0,2013-12-16 02:53:00
9:53 PM,35.1,30.9,85,30.25,8.0,North,3.5,-,N/A,,Clear,350,2013-12-16 03:53:00
10:53 PM,34.0,30.9,89,30.25,7.0,NNW,3.5,-,N/A,,Clear,340,2013-12-16 04:53:00
11:53 PM,34.0,30.9,89,30.25,7.0,North,3.5,-,N/A,,Clear,350,2013-12-16 05:53:00